DateTimeUTC,F1_A11,F1_S11,BsB_S11,BsG_S11,BsR_S11,BbsB_S11,BbsG_S11,BbsR_S11,BaB_A11,BaG_A11,BaR_A11,Tu_S11,T_S11,Uu_S11,U_S11,P_S11,T1_A11
2021-03-21T05:00:00Z,00000200,21000000,,,,,,,0000.03,-000.45,-000.11,16.8,24.3,,00.0,0637.5,31.0
2021-03-21T05:01:00Z,00000200,21000000,,,,,,,0000.44,0000.35,0000.09,16.8,24.3,,00.0,0637.5,31.0
2021-03-21T05:02:00Z,00000200,21000000,,,,,,,-000.26,-000.04,-000.07,16.8,24.3,,00.0,0637.5,31.0
2021-03-21T05:03:00Z,00000200,61000000,,,,,,,-000.01,-000.25,0000.03,16.8,24.3,,00.0,0637.5,31.0
2021-03-21T05:04:00Z,00000200,41000000,0001.07,0000.28,0000.08,0000.43,-000.07,0000.21,0000.57,0000.32,0000.19,16.9,24.1,,00.0,0638.3,31.0
2021-03-21T05:05:00Z,00000200,01000000,-000.19,0000.20,0000.19,0000.20,-000.09,0000.19,-000.01,0000.48,-000.01,16.9,24.0,,00.0,0638.4,31.0
2021-03-21T05:06:00Z,00000200,01000000,0000.03,0000.34,0000.45,-000.16,0000.13,0000.03,0000.34,0000.16,0000.03,16.9,24.0,,00.0,0638.3,30.9
2021-03-21T05:07:00Z,00000200,01000000,0000.73,0000.12,0000.52,0000.31,0000.06,0000.15,0000.40,-000.07,0000.66,16.9,24.0,,00.0,0638.3,31.0
2021-03-21T05:08:00Z,00000200,01000000,-000.47,0000.35,0000.24,0000.08,0000.02,0000.06,-000.02,0000.37,0000.52,16.9,24.0,,00.0,0638.3,31.0
2021-03-21T05:09:00Z,00000200,01000000,0000.02,0000.35,0000.17,-000.08,0000.18,0000.12,0000.40,0000.21,-000.46,17.0,24.0,,00.0,0638.3,31.0
2021-03-21T05:10:00Z,00000200,01000000,0000.69,-000.14,0000.24,0000.60,0000.16,-000.16,0000.38,0000.48,0000.08,17.0,24.0,,00.0,0638.3,31.0
2021-03-21T05:11:00Z,00000200,01000000,0000.54,0000.37,0000.55,0000.43,0000.16,0000.19,-000.03,0000.34,0000.50,17.1,24.0,,00.0,0638.2,31.0
2021-03-21T05:12:00Z,00000200,01000000,-000.25,0000.19,0000.43,0000.18,0000.18,0000.12,-000.31,-000.24,-000.26,17.2,24.1,,00.0,0638.2,31.0
2021-03-21T05:13:00Z,00000200,01000000,0000.68,0000.38,0000.42,0000.53,0000.09,-000.09,0000.43,0000.01,0000.13,17.2,24.1,,00.0,0638.2,31.0
2021-03-21T05:14:00Z,00000200,01000000,0000.28,0000.50,0000.43,0000.15,-000.03,-000.15,0000.04,-000.04,-000.13,17.2,24.1,,00.0,0638.1,31.0
2021-03-21T05:15:00Z,00000200,01000000,0000.87,0000.28,0000.20,0000.50,0000.03,-000.08,0000.13,0000.08,0000.05,17.2,24.1,,00.0,0638.1,31.0
2021-03-21T05:16:00Z,00000200,01000000,0000.04,0000.29,0000.46,0000.23,0000.14,0000.28,-000.21,0000.03,0000.01,17.1,24.1,,00.0,0638.1,31.0
2021-03-21T05:17:00Z,00000200,01000000,0000.44,0000.19,0000.22,-000.21,-000.03,0000.27,0000.27,0000.22,0000.33,17.1,24.1,,00.0,0638.1,31.0
2021-03-21T05:18:00Z,00000200,01000000,0000.46,0000.28,0000.04,-000.06,0000.05,-000.04,0000.29,0000.01,-000.13,17.1,24.0,,00.0,0638.1,31.0
2021-03-21T05:19:00Z,00000200,01000000,0000.83,0000.48,0000.46,0000.09,0000.20,-000.01,0000.23,0000.40,0000.19,17.0,24.0,,00.0,0638.1,31.0
2021-03-21T05:20:00Z,00000200,01000000,0000.48,0000.27,0000.50,0000.28,-000.07,0000.13,0000.27,0000.59,0000.13,17.0,24.0,,00.0,0638.1,31.0
2021-03-21T05:21:00Z,00000200,01000000,0000.51,0000.19,0000.17,0000.13,0000.04,-000.02,-000.04,-000.39,0000.19,17.0,24.0,,00.0,0638.1,31.0
2021-03-21T05:22:00Z,00000200,01000000,0000.93,-000.05,0000.18,0000.20,-000.07,0000.13,0000.33,0000.27,0000.45,17.0,24.0,,00.0,0638.1,31.0
2021-03-21T05:23:00Z,00000200,01000000,0000.27,0000.30,0000.17,0000.38,0000.00,0000.22,0000.55,0000.22,0000.05,17.1,24.0,,00.0,0638.1,31.0
2021-03-21T05:24:00Z,00000200,01000000,0000.57,0000.19,0000.21,0000.28,0000.09,-000.00,0000.25,0000.48,0000.41,17.1,24.0,,00.0,0638.0,31.0
2021-03-21T05:25:00Z,00000200,01000000,0000.79,0000.44,0000.45,0000.02,-000.19,0000.08,0000.41,0000.17,0000.02,17.2,24.1,,00.0,0638.0,31.0
2021-03-21T05:26:00Z,00000200,01000000,0000.15,0000.52,0000.62,-000.16,0000.15,0000.06,-000.31,-000.18,0000.06,17.2,24.1,,00.0,0638.0,31.0
2021-03-21T05:27:00Z,00000200,01000000,0000.74,0000.14,-000.01,0000.05,0000.30,0000.11,0000.20,0000.29,-000.00,17.3,24.1,,00.0,0638.0,31.0
2021-03-21T05:28:00Z,00000200,01000000,-000.19,0000.08,0000.52,0000.19,0000.24,0000.04,0000.07,0000.19,0000.17,17.3,24.1,,00.0,0638.0,31.0
2021-03-21T05:29:00Z,00000200,01000000,0000.17,0000.42,0000.54,0000.45,0000.17,0000.17,0000.30,-000.27,0000.10,17.3,24.1,,00.0,0637.9,31.0
2021-03-21T05:30:00Z,00000200,01000000,0000.22,0000.17,0000.09,-000.07,0000.02,-000.14,0000.14,0000.54,-000.01,17.2,24.1,,00.0,0637.9,31.0
2021-03-21T05:31:00Z,00000200,01000000,0000.27,0000.53,0000.35,0000.26,0000.27,0000.16,-000.02,-000.06,0000.03,17.2,24.1,,00.0,0637.9,31.0
2021-03-21T05:32:00Z,00000200,01000000,0000.72,0000.20,0000.45,0000.17,0000.03,0000.18,0000.19,-000.08,0000.08,17.2,24.1,,00.0,0637.9,31.0
2021-03-21T05:33:00Z,00000200,01000000,0001.06,0000.36,0000.37,0000.06,0000.07,0000.41,0000.19,0000.35,0000.47,17.1,24.1,,00.0,0637.9,31.0
2021-03-21T05:34:00Z,00000200,01000000,0000.53,0000.36,0000.36,0000.54,0000.34,0000.19,0000.28,0000.14,-000.37,17.1,24.1,,00.0,0637.8,31.0
2021-03-21T05:35:00Z,00000200,01000000,0000.83,0000.54,0000.12,-000.11,0000.05,-000.04,0000.16,-000.05,0000.35,17.1,24.1,,00.0,0637.8,31.0
2021-03-21T05:36:00Z,00000200,01000000,0000.48,0000.38,0000.05,0000.07,-000.09,0000.12,0000.10,0000.64,0000.26,17.1,24.0,,00.0,0637.8,31.0
2021-03-21T05:37:00Z,00000200,01000000,0000.50,0000.31,0000.20,-000.43,0000.06,0000.01,0000.50,0000.21,-000.06,17.1,24.0,,00.0,0637.8,31.0
2021-03-21T05:38:00Z,00000200,01000000,-000.16,0000.35,0000.18,0000.23,0000.22,-000.14,-000.10,0000.61,0000.90,17.2,24.0,,00.0,0637.8,31.0
2021-03-21T05:39:00Z,00000200,01000000,-000.23,0000.06,0000.31,0000.20,0000.23,-000.16,0000.68,0000.11,-000.24,17.2,24.1,,00.0,0637.8,31.0
2021-03-21T05:40:00Z,00000200,01000000,0000.53,0000.20,0000.41,-000.11,0000.35,-000.22,0000.00,-000.05,0000.03,17.3,24.1,,00.0,0637.7,31.0
2021-03-21T05:41:00Z,00000200,01000000,0000.20,0000.36,0000.24,0000.21,0000.20,-000.13,-000.10,0000.09,-000.25,17.3,24.1,,00.0,0637.7,31.0
2021-03-21T05:42:00Z,00000200,01000000,0000.63,0000.25,0000.29,0000.15,0000.05,-000.06,0000.24,0000.26,0000.13,17.3,24.2,,00.0,0637.7,31.0
2021-03-21T05:43:00Z,00000200,01000000,-000.09,0000.57,0000.08,-000.23,0000.02,0000.04,0000.22,-000.13,0000.63,17.3,24.1,,00.0,0637.7,31.0
2021-03-21T05:44:00Z,00000200,01000000,0000.74,0000.51,0000.29,0000.31,-000.01,0000.05,0000.05,0000.10,-000.36,17.3,24.1,,00.0,0637.7,31.0
2021-03-21T05:45:00Z,00000200,01000000,0000.38,0000.61,0000.23,0000.43,0000.14,0000.12,0000.16,0000.29,0000.18,17.3,24.1,,00.0,0637.6,31.0
2021-03-21T05:46:00Z,00000200,01000000,0000.03,0000.27,0000.46,0000.13,-000.07,0000.29,0000.48,-000.08,-000.08,17.2,24.1,,00.0,0637.6,31.0
2021-03-21T05:47:00Z,00000200,01000000,0000.41,0000.29,0000.28,-000.19,0000.21,-000.06,0000.01,0000.24,0000.32,17.2,24.1,,00.0,0637.6,31.0
2021-03-21T05:48:00Z,00000200,01000000,0000.70,0000.48,0000.27,-000.27,0000.39,0000.06,-000.11,-000.05,-000.20,17.2,24.1,,00.0,0637.6,31.0
2021-03-21T05:49:00Z,00000200,01000000,0000.63,0000.34,0000.37,-000.09,0000.07,0000.29,0000.47,0000.30,0000.56,17.1,24.1,,00.0,0637.6,31.0
2021-03-21T05:50:00Z,00000200,01000000,0000.12,0000.28,0000.49,0000.14,0000.23,0000.13,0000.17,0000.18,0000.12,17.1,24.1,,00.0,0637.6,31.0
2021-03-21T05:51:00Z,00000200,01000000,0000.86,0000.62,0000.26,0000.06,0000.02,0000.00,-000.07,0000.07,-000.01,17.1,24.0,,00.0,0637.6,31.0
2021-03-21T05:52:00Z,00000200,01000000,0000.42,0000.47,0000.51,0000.22,0000.23,0000.17,0000.55,0000.06,0000.30,17.1,24.0,,00.0,0637.5,31.0
2021-03-21T05:53:00Z,00000200,01000000,0000.07,0000.21,0000.40,0000.11,-000.05,0000.33,0000.03,0000.26,0000.27,17.2,24.1,,00.0,0637.5,31.0
2021-03-21T05:54:00Z,00000200,01000000,0000.17,0000.43,0000.41,-000.34,0000.06,0000.32,0000.34,0000.68,-000.20,17.3,24.1,,00.0,0637.5,31.0
2021-03-21T05:55:00Z,00000200,01000000,0000.35,0000.30,0000.48,0000.18,0000.01,0000.10,-000.05,-000.05,0000.35,17.3,24.1,,00.0,0637.5,31.0
2021-03-21T05:56:00Z,00000200,01000000,0001.00,0000.18,0000.63,0000.02,0000.14,0000.22,0000.10,0000.12,0000.14,17.4,24.2,,00.0,0637.5,31.0
2021-03-21T05:57:00Z,00000200,41000000,,,,,,,0000.59,0000.29,0000.20,17.4,24.2,,00.0,0637.5,31.0
2021-03-21T05:58:00Z,00000200,61000000,,,,,,,-000.24,-000.19,-000.33,17.2,24.4,,00.0,0636.5,31.0
2021-03-21T05:59:00Z,00000200,21000000,,,,,,,-000.18,0000.30,0000.27,17.2,24.5,,00.0,0636.5,31.1
